Location: Unspecified
(0.0000°N, 0.0000°E)
Time: 16:24:22
(UTC+00:00)

Vanguard 1 Rocket - Pass Details

Date: 20 November 2019
Orbit: 650 x 4226 km, 34.3° (Epoch: 12 December)

Event Time Altitude Azimuth Distance (km) Brightness Sun altitude
Rises 15:16:12 0° 252° (WSW) 7,371 13.1 34.8°
Reaches altitude 10° 15:22:53 10° 239° (WSW) 6,826 13.3 33.3°
Maximum altitude 15:40:43 24° 192° (SSW) 6,277 12.3 29.2°
Drops below altitude 10° 15:59:11 10° 145° (SE) 6,982 11.8 24.9°
Sets 16:06:19 0° 131° (SE) 7,550 11.8 23.3°
